Theta_e
317 316 316 315 314 313 313 313 312 312 312 312 312 312 313 313 313 312 312 312 312 314 315 318 321 321 325 330 327 324 325 325 326 325 324 324 322 320 321 323 324 323 322 324 326 326 325 324 323 324 323 321 321 321 322 323 322 321 317 316 315 309 308 309 308 307 306 305 306 305 305 304 303 303 302 301 299 297 296 295 293 293 292 292 292
316 316 316 315 315 314 313 313 313 312 312 311 312 312 312 312 313 312 313 312 313 314 314 319 324 321 322 327 324 324 328 327 327 327 325 324 322 319 319 322 322 321 322 323 323 323 323 322 321 321 321 321 321 322 322 321 318 315 310 308 307 303 303 304 304 305 304 303 303 303 304 303 302 302 300 298 297 297 295 293 292 292 291 291 291
316 316 316 316 316 315 314 313 313 313 312 311 311 312 312 312 312 312 313 312 314 317 316 320 325 321 321 325 322 323 328 328 327 325 323 323 322 319 319 320 320 320 320 320 321 321 320 320 321 322 321 321 320 320 319 316 310 306 303 301 302 302 301 301 302 303 303 302 301 301 303 301 299 299 298 297 297 295 294 292 291 291 291 291 290
316 316 316 316 316 315 315 314 314 313 312 312 311 312 312 312 312 312 313 313 314 317 317 320 324 322 322 324 322 324 327 326 326 324 323 324 322 319 319 320 320 319 319 319 319 318 319 320 321 320 319 317 316 315 312 308 304 301 300 299 299 300 300 300 302 301 300 301 300 300 301 300 299 298 297 296 295 294 293 292 291 291 290 290 290
316 316 316 315 315 315 316 315 314 313 313 313 311 312 312 312 312 312 313 314 315 316 317 322 325 322 322 322 321 324 327 325 324 323 323 322 320 318 320 320 318 318 319 319 318 318 319 320 320 318 315 312 311 309 305 303 301 300 299 299 299 299 299 300 301 300 299 300 300 299 300 299 299 298 296 295 294 293 292 291 291 290 290 290 290
316 316 315 315 315 315 315 314 314 314 314 313 312 311 311 312 312 312 312 313 315 315 316 320 322 318 320 323 322 324 325 323 321 321 322 320 317 318 320 319 318 318 319 319 318 318 319 320 318 314 309 307 305 304 302 300 299 298 298 298 299 299 298 298 299 298 298 299 298 298 297 297 297 297 295 293 293 292 291 290 290 290 289 289 289
317 316 316 315 315 314 314 314 315 314 314 313 311 310 310 311 311 311 312 312 313 313 314 317 318 318 322 324 323 322 321 322 321 322 321 318 317 319 319 319 318 318 318 318 318 319 319 318 314 308 304 303 302 301 299 299 298 298 299 298 298 299 297 297 297 297 297 298 297 296 295 294 294 294 294 293 292 291 291 290 289 289 289 289 289
318 317 317 316 316 316 315 315 314 314 313 312 311 310 310 311 311 311 311 312 312 312 315 318 319 320 322 322 321 321 321 322 322 320 318 316 317 319 318 318 318 317 317 318 318 319 318 313 307 303 301 300 299 299 298 298 299 299 300 299 298 298 297 296 296 296 296 296 296 295 294 294 294 293 293 293 292 291 290 289 289 289 288 288 288
317 318 317 317 316 315 315 314 313 312 312 312 311 310 310 310 310 310 310 312 312 313 316 320 322 323 322 320 321 322 322 321 320 318 316 316 317 319 317 317 318 317 317 318 318 316 313 307 302 301 299 299 298 298 298 299 299 300 300 299 298 298 297 297 296 296 296 295 295 294 294 293 293 293 292 292 291 291 290 289 288 288 288 288 288
318 318 318 317 316 314 313 312 312 311 311 312 311 310 309 309 310 310 310 311 313 313 314 317 319 320 319 320 321 321 320 319 319 318 316 316 317 317 316 317 317 316 317 317 314 311 306 302 300 299 298 298 297 298 299 300 300 300 300 299 298 298 298 297 297 296 296 295 295 294 294 293 293 292 292 291 291 291 290 289 289 288 288 288 288
318 319 318 317 316 314 313 312 311 311 310 311 310 309 309 309 310 310 310 311 312 312 311 313 316 317 318 320 319 318 318 319 320 319 317 317 317 316 316 316 316 316 316 313 308 304 301 299 298 298 297 297 297 299 300 301 301 301 300 300 299 298 298 298 298 298 297 296 295 294 294 293 293 292 292 292 291 290 290 289 289 288 288 288 288
318 318 318 317 317 316 314 313 311 310 310 310 310 309 309 309 310 310 310 311 311 311 311 313 318 319 319 319 317 317 319 320 320 318 316 317 316 316 316 316 316 315 312 307 303 300 299 298 297 297 297 297 298 300 301 301 301 301 301 300 300 300 300 300 300 299 298 297 296 294 294 293 293 292 292 291 291 290 290 289 289 289 288 288 288
317 317 317 317 317 317 316 314 313 311 311 310 310 309 309 309 309 309 310 310 311 312 312 312 315 317 316 317 317 319 320 320 319 317 315 317 316 316 317 317 315 312 306 302 300 299 298 297 297 297 297 299 300 301 301 301 301 301 301 301 301 301 301 301 300 300 298 297 295 294 294 293 293 292 292 291 291 290 290 289 289 288 288 288 287
317 317 317 317 316 316 316 315 314 312 312 311 310 309 309 309 309 308 309 310 311 312 312 312 314 316 316 317 319 319 318 318 317 315 316 317 316 315 317 316 313 307 302 300 298 297 297 297 297 297 298 300 300 301 301 301 301 301 301 301 301 301 301 301 300 299 298 297 295 294 293 293 292 292 291 291 290 290 289 289 289 288 288 287 287
318 318 317 317 316 316 315 314 314 313 312 311 310 309 309 309 309 308 309 310 310 310 312 313 315 318 318 318 319 318 317 316 315 315 317 317 315 315 317 315 309 304 301 299 297 297 297 297 297 297 299 300 300 301 301 301 301 301 301 301 301 301 301 300 300 299 298 297 295 294 293 292 292 291 291 290 290 289 289 289 288 288 288 287 287
317 318 317 317 316 315 315 314 313 312 311 311 310 310 310 309 309 309 309 309 309 310 312 314 316 318 318 318 317 315 315 315 315 317 318 317 315 315 316 313 306 301 299 298 297 297 296 296 297 298 299 300 300 301 301 301 301 301 301 301 301 300 300 299 299 298 297 296 294 293 292 292 291 290 290 290 289 289 288 288 288 287 287 287 286
317 317 317 317 317 316 315 314 313 313 312 311 311 310 310 310 309 309 309 308 309 310 312 314 317 318 317 317 315 313 314 315 316 317 316 316 315 315 315 311 303 300 299 297 297 297 296 297 297 298 299 300 300 300 300 300 301 301 300 300 300 300 299 299 298 297 296 295 293 292 292 291 291 290 290 289 289 288 288 288 287 287 286 286 286
317 317 317 317 317 316 315 314 313 313 312 311 311 310 310 310 309 309 309 308 309 311 312 312 315 317 316 316 313 312 314 316 316 315 313 313 314 315 313 308 302 299 298 297 297 296 296 297 298 298 299 299 300 300 300 300 300 300 300 299 299 299 299 298 297 295 294 293 292 291 291 291 290 290 289 289 288 288 288 287 287 286 286 286 285
318 318 317 316 317 316 315 315 313 312 312 310 310 309 309 309 309 309 309 309 309 311 311 311 313 315 315 314 312 312 315 316 315 313 311 312 313 313 311 306 301 299 297 297 296 296 296 297 298 298 299 299 299 299 300 300 300 300 299 299 299 299 298 298 296 294 293 291 291 291 290 290 290 289 289 288 288 287 287 287 286 286 286 285 285
318 318 317 317 316 316 315 314 313 312 311 310 309 309 309 309 309 309 309 309 309 310 311 312 313 315 315 313 311 313 315 314 314 312 311 312 312 312 310 305 299 298 297 296 296 296 296 297 298 298 299 299 299 299 299 299 299 299 298 298 298 298 298 297 295 293 291 290 290 290 289 289 289 289 288 288 288 287 287 286 286 286 285 285 285
319 318 317 317 316 315 315 314 313 312 311 310 309 309 309 309 309 309 309 309 309 310 311 312 314 316 314 312 311 313 314 313 312 311 311 312 311 310 309 303 298 297 297 296 296 296 296 297 298 298 298 298 299 299 299 298 298 298 298 297 298 298 298 297 295 293 291 290 289 289 289 289 289 288 288 288 287 287 286 286 286 285 285 285 285
319 318 317 317 316 316 315 314 313 312 311 311 310 309 309 309 309 309 309 309 309 310 311 312 314 315 313 312 312 312 312 312 312 311 311 312 310 309 307 302 298 297 296 296 296 296 296 297 297 298 298 298 298 298 298 298 298 297 297 297 297 297 297 296 294 293 291 290 289 289 288 288 288 288 288 288 287 287 286 286 286 285 285 285 285
318 318 318 317 317 316 315 314 314 312 312 311 310 309 309 309 309 308 309 309 308 309 311 312 313 314 312 311 313 313 312 312 311 310 311 311 309 307 305 300 297 296 296 296 295 295 296 297 297 297 297 297 297 297 297 297 297 296 296 296 296 296 296 295 294 292 290 289 289 288 288 288 288 288 288 287 287 287 286 286 286 286 285 285 284
318 317 318 317 317 317 316 315 315 313 312 311 310 310 309 308 308 308 309 309 308 309 310 311 312 312 310 311 313 313 312 311 310 310 310 310 308 306 303 299 296 296 296 295 295 295 296 296 296 296 296 296 296 296 296 295 295 295 294 295 295 295 295 294 292 291 290 289 289 288 288 288 288 288 288 287 287 287 287 286 286 286 285 285 284
318 317 317 317 317 317 317 316 315 314 313 311 310 310 309 308 308 308 309 309 308 308 309 310 311 310 309 311 313 313 313 312 310 310 311 310 307 304 302 298 296 296 295 295 295 295 295 296 296 296 296 295 295 295 295 294 294 294 293 293 294 294 294 293 292 291 290 289 288 288 288 288 288 288 288 287 287 287 287 286 286 286 285 285 284
318 317 317 317 317 317 317 317 316 314 313 312 310 310 309 308 308 308 308 308 308 308 308 309 309 308 309 310 312 312 313 312 311 311 311 309 306 303 300 297 295 295 295 295 295 295 295 295 295 295 295 295 294 294 293 293 293 293 293 293 293 293 293 292 291 290 290 289 288 288 288 288 288 288 287 287 287 287 287 286 286 286 285 285 284
318 318 317 318 318 318 318 317 316 315 313 312 311 310 309 308 308 308 307 307 308 308 308 308 307 307 308 309 311 312 312 312 311 311 310 308 304 302 299 296 295 295 294 294 294 294 295 295 295 295 294 294 293 293 293 292 292 292 292 292 293 292 292 292 291 291 289 289 288 288 288 288 288 287 287 287 287 287 287 287 286 286 286 285 285
318 318 317 318 318 318 318 318 317 315 313 313 312 310 309 308 308 307 307 307 307 307 307 307 307 307 307 308 310 311 311 311 310 310 309 306 302 300 297 295 294 294 294 294 294 294 295 294 294 294 293 293 293 292 292 292 292 292 292 292 292 292 292 292 292 291 289 289 288 288 288 288 287 287 287 287 287 287 287 287 286 286 286 286 285
319 318 318 318 318 318 318 317 317 315 314 313 312 311 310 309 308 307 306 307 307 307 307 306 306 307 307 307 309 310 310 310 309 309 308 305 301 298 296 294 294 294 294 294 294 294 294 294 294 293 293 293 292 292 292 292 291 291 291 291 291 291 292 293 292 290 289 289 288 288 288 287 287 287 287 287 287 287 287 287 286 286 286 286 286
318 318 318 318 318 318 318 317 317 316 315 314 313 312 312 310 309 307 306 306 306 306 307 306 306 306 307 307 308 309 310 309 309 309 308 305 300 297 296 294 294 294 293 293 294 294 294 293 293 293 293 293 292 292 292 292 291 291 291 291 291 291 293 293 292 291 290 289 289 289 288 287 287 287 287 287 287 287 287 287 286 286 286 286 286
318 318 318 318 318 318 318 318 317 317 316 315 314 312 311 311 310 308 307 306 305 306 306 306 306 306 307 307 307 308 309 309 309 309 308 306 302 297 295 294 293 293 293 293 293 293 293 293 293 293 292 292 292 292 292 291 291 290 290 290 290 291 292 293 292 291 290 290 290 289 288 287 287 287 287 287 287 286 286 286 286 286 286 286 286
317 318 318 318 317 318 317 318 318 317 317 315 314 312 311 311 311 309 307 306 305 305 305 305 306 306 307 307 307 307 308 309 309 308 308 307 304 300 296 294 293 293 293 293 293 293 293 293 293 292 292 292 292 292 292 291 290 290 290 290 290 291 292 293 293 292 291 291 290 289 288 287 287 287 287 287 287 286 286 286 286 286 286 286 286
317 317 317 317 317 317 317 317 317 317 316 315 313 311 311 310 310 308 307 306 305 305 304 304 305 306 306 307 307 307 308 309 309 309 309 308 307 304 299 296 294 293 293 292 293 293 293 293 292 292 292 292 292 292 291 290 290 290 290 290 290 291 292 293 293 292 291 291 290 289 288 288 288 288 287 287 287 287 286 286 286 286 286 286 286
316 316 316 317 316 316 317 317 317 317 316 314 312 310 309 309 308 307 306 305 304 304 304 304 304 304 305 306 307 307 308 309 309 310 309 308 307 306 303 299 295 293 293 292 292 292 292 292 292 292 292 292 292 291 291 290 290 290 290 290 290 292 293 293 293 292 291 291 290 288 288 288 288 288 288 287 287 287 287 286 286 286 286 286 286
316 316 316 316 316 316 316 316 316 316 315 313 311 310 309 308 308 307 306 304 304 303 303 303 303 303 304 305 306 307 308 308 309 309 308 307 306 305 304 302 297 294 292 292 292 292 292 292 292 292 292 292 292 291 290 290 290 289 289 290 291 292 292 292 293 292 291 290 289 288 288 288 288 288 288 287 287 287 287 287 286 286 286 286 286
315 315 315 315 315 315 315 315 315 314 314 313 312 310 309 308 307 306 304 304 303 302 302 302 302 302 303 304 305 306 307 307 308 307 306 306 305 304 303 301 299 295 292 291 291 292 291 291 291 291 292 293 291 290 290 290 289 289 289 290 291 292 292 292 292 291 290 290 289 288 288 288 288 288 288 287 287 287 287 287 287 286 286 286 286
314 314 314 314 314 314 314 314 313 313 313 312 311 309 308 306 305 304 303 303 302 301 301 301 301 301 302 302 303 305 306 306 306 306 305 304 304 302 300 299 297 295 293 292 291 291 291 290 291 292 292 292 291 290 290 289 289 289 289 290 291 292 292 292 291 290 290 289 288 288 288 288 288 288 288 287 287 287 287 287 286 286 286 286 286
314 314 313 313 312 312 312 312 312 312 311 310 309 307 306 305 304 303 302 302 301 301 301 301 301 301 301 301 302 304 305 305 304 304 304 303 302 300 298 297 296 295 293 292 290 290 290 290 292 293 292 291 290 290 290 289 289 289 289 290 292 292 292 291 290 290 289 289 288 288 288 288 288 288 288 287 287 286 286 286 286 286 286 286 286
313 313 313 312 311 311 311 311 311 310 309 308 307 306 305 304 303 302 302 301 301 301 301 300 300 300 301 301 302 303 303 303 303 302 301 300 299 298 297 297 296 295 294 292 291 291 291 292 293 293 291 290 290 290 290 290 289 288 288 290 292 292 291 290 289 289 289 288 288 288 288 288 288 288 287 287 287 286 286 286 286 286 286 286 286
312 312 311 311 310 310 310 309 309 308 307 306 306 305 305 304 303 302 302 301 301 300 300 300 300 300 300 300 301 301 301 301 300 300 299 298 298 297 298 298 297 297 296 296 296 295 295 295 294 292 291 290 290 290 290 289 289 288 289 290 291 290 290 289 289 288 288 288 288 288 288 288 288 288 287 287 287 286 286 286 285 285 285 285 285
311 310 309 309 309 308 308 307 307 307 307 306 306 305 305 303 302 302 301 300 300 299 299 299 299 299 299 299 299 299 299 298 298 298 297 297 297 297 297 297 297 297 296 296 295 295 294 294 293 292 291 290 289 289 289 289 289 290 290 290 290 289 289 288 288 288 288 288 288 288 288 288 287 287 287 287 286 286 286 285 285 285 285 285 285
309 308 308 307 307 307 307 307 307 306 306 305 305 305 304 302 301 300 299 299 298 298 297 297 297 297 297 297 297 297 297 297 297 297 297 297 296 296 296 296 295 295 294 294 294 293 292 292 291 290 290 289 289 290 290 290 290 290 290 289 289 288 288 288 287 287 287 287 288 287 287 287 287 287 287 286 286 286 285 285 285 285 285 285 284
308 308 308 308 308 308 308 308 307 306 305 305 304 303 302 302 300 299 299 298 298 297 297 297 297 297 297 297 297 297 297 297 297 296 296 296 295 295 295 295 294 294 293 293 293 292 292 292 291 291 291 291 291 291 290 290 289 289 288 288 288 288 287 287 287 287 287 287 287 287 287 287 287 287 286 286 286 286 285 285 285 284 284 284 283
309 309 308 308 309 309 308 307 307 306 305 304 303 303 302 301 301 300 300 299 299 299 298 299 299 299 299 299 298 298 297 297 296 296 295 295 294 294 293 293 292 292 291 291 291 291 290 290 290 290 290 289 289 289 288 288 287 287 287 287 287 287 286 286 286 287 287 287 287 287 286 286 286 286 286 285 285 285 285 284 284 284 283 283 282
308 308 307 307 307 307 307 306 305 304 303 303 302 302 302 302 301 301 300 300 300 300 299 299 299 299 298 298 297 296 296 295 294 294 293 293 292 292 291 291 291 290 290 290 289 289 289 289 289 289 289 288 288 288 288 287 287 287 286 286 286 286 286 286 285 286 286 286 286 286 286 285 285 285 285 285 285 285 284 283 283 282 281 281 281
306 305 305 305 305 305 305 304 304 302 302 302 301 300 301 301 301 300 300 299 299 299 298 298 297 296 296 295 295 295 294 294 293 293 292 292 292 291 291 291 290 290 290 289 289 289 289 289 289 289 289 289 288 288 288 288 287 287 287 287 286 286 286 286 285 286 286 286 286 286 285 285 285 284 284 284 284 284 284 283 282 281 279 279 279
304 304 303 303 303 303 303 303 302 301 300 301 300 299 299 299 299 298 298 298 297 297 296 296 296 296 295 295 295 294 294 294 294 293 293 292 292 292 291 291 291 290 290 290 290 290 290 290 290 289 289 289 288 288 288 288 288 287 287 287 287 287 287 286 286 286 286 286 286 286 285 285 285 284 284 284 284 284 283 283 282 281 280 279 278
302 301 301 301 301 301 300 300 300 299 298 298 298 298 298 297 297 297 297 296 296 296 296 296 295 295 295 294 294 294 293 293 293 293 292 292 292 292 291 291 291 290 290 290 290 290 290 289 289 289 289 289 289 289 288 288 288 288 288 288 287 287 287 286 286 286 286 286 286 285 285 285 285 284 284 284 284 283 283 283 282 281 279 278 278
299 298 298 298 298 297 297 297 297 297 297 297 297 297 296 296 296 296 295 295 295 294 294 294 293 293 293 292 292 292 292 291 291 291 291 291 291 290 290 290 290 290 290 290 290 290 290 289 289 289 289 289 289 289 288 288 288 288 288 288 287 287 287 286 285 285 285 285 285 284 284 284 283 283 283 282 282 282 282 281 281 280 279 278 277
297 296 296 296 296 296 296 295 295 295 296 296 296 296 295 295 295 294 293 293 293 292 292 292 291 291 291 291 291 291 291 290 290 290 290 290 290 290 290 290 290 290 290 290 290 289 289 289 289 289 289 289 289 288 288 288 288 288 288 287 287 287 286 286 285 284 284 284 284 283 283 283 282 281 281 280 280 280 280 280 279 278 278 277 277
295 295 295 295 295 295 294 294 294 294 295 295 294 294 294 293 293 292 292 292 291 291 291 291 291 291 291 291 291 291 290 290 290 290 290 290 290 290 290 290 290 290 290 289 289 289 289 289 289 289 289 289 289 288 288 288 288 287 287 287 286 285 285 284 283 282 282 282 281 281 281 281 280 279 279 279 279 278 278 278 278 277 277 277 277
Wind_Speed
32 30 30 30 31 31 31 30 30 31 31 32 30 28 26 23 23 23 22 23 24 25 26 26 27 25 28 31 28 27 28 28 28 25 23 23 21 21 23 23 22 20 18 19 21 21 20 20 21 21 20 17 15 14 16 17 15 13 12 11 11 10 11 11 9 6 5 6 7 7 6 4 3 3 2 3 4 6 7 8 9 10 11 11 12
35 34 33 32 33 32 31 32 31 32 32 33 32 30 28 25 24 24 23 24 24 26 25 25 29 27 28 31 27 25 30 31 28 24 22 23 24 21 19 21 21 20 22 24 25 24 22 22 21 20 19 17 18 18 17 16 14 13 13 13 12 9 9 10 10 8 6 5 5 6 6 5 4 4 4 4 5 6 7 7 9 10 11 12 12
38 37 36 35 35 33 33 33 32 32 32 33 33 31 29 26 26 25 24 25 24 26 25 26 32 29 27 29 25 25 31 28 25 24 24 25 25 20 17 19 19 19 21 21 22 22 21 20 19 18 18 17 18 17 16 15 15 15 12 9 11 11 9 9 10 8 6 6 5 5 6 6 5 6 6 6 6 6 6 8 9 10 11 12 12
39 38 37 36 36 35 35 35 34 34 33 34 35 33 32 29 28 27 26 26 25 28 27 29 33 29 27 28 26 28 29 25 24 26 24 23 24 20 18 20 19 20 20 18 18 19 19 17 15 16 16 15 15 15 17 17 16 16 13 8 8 9 10 10 10 9 6 6 5 5 6 6 6 7 7 6 6 5 6 8 9 10 11 10 10
40 39 38 37 37 36 36 36 36 36 36 35 36 35 34 31 29 28 27 27 28 29 28 31 34 31 30 30 29 31 30 27 28 28 24 23 24 22 21 21 21 20 20 19 18 18 17 15 14 14 15 16 15 16 18 18 16 14 12 10 8 7 7 8 10 9 7 6 6 5 5 7 7 6 6 5 6 6 6 7 8 9 9 9 9
40 40 39 36 35 34 35 37 38 38 37 36 36 36 35 33 30 29 28 28 30 30 29 33 34 30 31 33 33 34 33 31 30 30 28 26 23 23 24 24 24 22 21 21 19 18 17 16 15 15 17 19 18 18 18 17 16 15 12 10 8 7 6 6 7 7 7 7 7 6 6 6 6 6 6 5 6 6 6 6 6 7 7 7 8
36 35 36 35 34 33 34 35 37 38 38 37 37 37 35 33 31 29 29 29 31 31 31 32 31 28 30 32 32 32 32 31 29 28 27 25 23 25 26 25 25 23 22 22 20 19 18 17 17 18 21 21 20 19 18 17 16 15 13 11 9 8 7 6 5 5 6 7 7 7 7 7 6 6 7 6 6 5 6 5 5 5 5 5 6
31 31 31 31 31 32 32 33 34 36 38 38 38 37 36 34 32 30 30 31 31 30 30 31 29 29 32 31 30 32 32 29 26 25 25 25 25 27 27 26 25 24 22 22 22 21 20 19 21 23 23 22 21 19 17 17 15 14 13 12 10 9 8 7 5 4 4 5 6 6 7 8 7 7 6 6 6 5 5 5 3 3 4 5 6
23 23 24 25 26 27 28 30 32 35 37 38 37 36 35 33 32 31 30 31 31 29 30 32 32 33 33 31 30 31 30 26 24 25 25 25 27 27 27 27 26 26 23 23 23 22 22 23 24 24 23 22 21 20 18 17 15 14 12 12 11 9 8 7 4 4 3 4 5 6 7 7 6 6 5 4 4 4 5 4 2 2 3 5 6
12 13 14 16 19 20 23 27 30 33 35 36 36 35 35 34 33 32 31 31 31 30 31 33 34 34 34 32 31 30 29 28 28 26 24 25 28 28 28 28 28 27 26 25 25 25 25 26 25 24 23 22 21 20 19 17 16 14 12 12 10 8 7 6 4 3 2 2 5 6 6 6 5 4 3 3 2 2 3 3 2 2 3 5 6
5 6 7 9 12 15 19 24 27 31 33 35 36 35 35 35 34 34 32 32 32 31 31 32 33 33 35 34 32 31 31 32 31 26 25 27 29 28 28 29 28 28 27 27 28 29 28 27 26 25 24 23 22 20 18 17 15 14 12 11 10 8 6 4 3 2 2 4 6 7 6 6 5 4 4 4 4 3 2 2 2 3 3 5 6
4 5 7 8 10 14 17 21 25 29 32 34 35 35 35 35 35 34 33 32 32 31 30 31 33 35 35 35 32 30 31 31 29 26 26 29 29 29 30 30 29 29 30 31 32 31 30 28 27 26 25 24 22 21 18 16 15 13 11 10 8 7 5 4 4 4 5 5 7 7 7 7 7 6 6 6 5 5 5 5 4 4 4 5 6
8 9 11 12 13 14 16 19 23 27 30 33 34 35 35 36 36 36 35 33 32 31 30 31 34 35 34 34 34 32 30 29 29 27 28 30 29 30 32 31 31 32 34 35 34 33 31 30 28 27 26 24 22 20 18 16 14 12 10 8 7 5 4 4 5 5 5 6 7 7 7 8 8 7 7 7 7 7 6 6 6 6 6 6 7
14 15 17 18 17 16 16 18 21 25 28 31 33 34 36 36 37 36 35 34 33 32 31 32 33 33 32 32 34 33 29 28 28 27 29 31 30 30 32 31 32 35 37 37 35 33 32 30 28 27 26 24 22 20 18 16 13 11 9 7 6 4 3 4 4 5 5 6 6 7 8 8 8 8 8 8 8 8 8 7 7 7 8 8 8
22 23 23 22 20 17 17 18 20 23 26 29 32 34 36 37 37 36 35 34 33 32 32 33 33 35 35 34 33 31 29 28 27 27 30 30 28 30 32 31 33 36 37 36 34 33 32 30 29 28 26 24 22 20 18 16 14 11 9 7 5 3 2 3 4 4 5 5 6 7 8 8 9 9 8 9 9 9 9 8 8 8 9 9 9
24 23 20 19 19 18 18 18 20 23 25 28 30 32 35 37 37 36 35 34 33 33 33 32 33 36 37 35 31 28 28 28 28 29 31 28 26 29 31 31 34 37 37 36 35 33 32 31 30 28 26 24 22 20 17 15 13 11 9 7 5 3 1 2 3 4 5 6 7 8 8 9 9 9 9 9 9 9 9 9 9 9 9 10 10
19 17 15 15 17 18 18 18 20 22 24 27 29 31 33 35 36 36 34 34 33 32 32 32 34 36 36 33 29 28 29 29 29 29 28 26 27 29 31 33 37 38 37 36 35 34 33 32 31 29 27 25 22 20 18 16 14 12 9 7 5 3 1 2 3 4 6 7 8 8 9 9 9 10 10 10 9 10 10 10 10 10 10 11 11
16 14 12 12 14 16 18 19 19 21 23 25 27 29 32 34 36 36 35 34 33 33 33 33 35 36 36 33 30 30 31 31 30 28 26 27 30 32 33 37 40 40 38 37 36 35 34 33 31 29 27 25 23 21 19 17 14 12 10 8 6 3 2 3 5 6 7 8 9 9 10 10 10 10 10 10 10 10 10 11 11 11 11 12 12
13 12 10 9 11 14 17 18 19 20 22 24 27 29 32 34 36 36 35 33 32 33 34 34 36 37 36 33 31 32 33 33 31 28 28 29 31 34 36 39 41 41 39 38 37 36 35 34 32 30 28 26 24 22 19 18 15 13 11 9 6 4 3 4 7 8 9 9 10 10 10 10 10 10 10 10 10 11 11 12 12 12 12 13 13
9 8 7 7 9 12 14 16 18 18 20 23 27 30 32 33 35 37 36 34 33 34 34 35 36 37 34 30 31 33 34 34 31 27 29 30 32 35 38 41 43 42 40 38 37 37 35 34 32 30 28 26 24 22 20 19 16 14 12 10 7 5 5 6 7 9 10 10 11 11 11 11 11 10 10 10 11 11 12 13 13 13 13 14 14
6 5 5 7 8 10 12 14 17 18 20 23 26 29 31 33 35 37 38 36 35 35 35 35 36 37 34 31 32 32 33 33 31 30 32 32 33 37 40 43 44 42 40 39 38 37 36 34 32 30 28 26 24 23 21 20 17 15 13 11 8 7 6 6 8 10 10 11 11 11 12 12 11 11 10 11 11 12 14 14 15 14 14 15 16
5 4 4 7 8 9 10 12 15 18 20 23 25 28 31 33 34 36 38 38 36 36 36 36 37 37 35 33 33 33 34 35 34 34 35 33 34 38 42 45 45 43 41 40 38 37 36 34 32 30 29 27 25 23 22 20 18 16 14 12 10 8 7 7 8 10 11 12 12 13 13 12 12 11 11 11 12 13 14 15 15 16 16 17 18
6 5 5 6 7 9 10 12 15 17 20 22 25 28 30 32 34 36 38 39 37 36 36 36 38 38 36 36 36 35 35 36 36 37 36 34 35 39 44 46 46 44 42 40 39 38 36 34 33 31 29 27 25 24 22 20 18 16 14 12 10 9 8 8 9 10 11 12 13 13 13 13 12 12 12 12 13 14 15 16 16 17 18 18 19
9 8 6 7 8 10 12 13 15 17 19 22 25 28 30 32 34 36 37 38 37 37 37 37 38 39 38 38 39 38 37 37 37 37 36 34 35 41 46 48 47 45 43 41 40 38 36 35 33 31 29 27 26 25 23 21 19 17 15 13 11 10 9 9 10 11 11 12 13 14 14 14 13 13 13 13 14 15 16 17 18 18 19 19 20
14 12 9 8 10 12 14 16 16 17 19 21 24 27 29 32 34 36 37 38 37 37 37 38 39 40 39 39 39 39 39 38 36 36 35 34 36 42 47 49 48 45 44 42 40 39 37 35 33 31 29 27 26 25 23 22 20 18 16 14 13 11 10 10 10 11 12 13 14 14 14 15 14 14 14 14 15 16 17 18 19 19 20 20 21
18 16 12 10 12 15 17 19 19 18 19 21 23 26 28 31 33 35 37 37 37 37 38 39 40 40 39 39 39 39 39 38 37 36 35 34 37 43 48 50 48 46 44 42 41 39 37 35 33 31 30 28 26 25 24 23 21 19 17 15 14 13 11 11 11 12 13 14 15 15 15 16 15 15 15 15 16 17 18 19 19 20 20 21 22
20 19 15 14 15 18 20 22 22 20 19 20 23 25 27 30 32 35 37 37 38 37 38 40 40 39 39 40 40 39 38 37 36 36 34 34 37 44 49 50 48 45 44 42 40 39 37 35 34 32 31 29 27 26 25 23 22 20 18 17 15 14 12 11 12 13 14 15 16 16 17 17 16 15 15 17 18 19 19 20 20 20 21 22 23
22 23 20 19 19 20 22 25 26 23 21 20 22 24 26 29 32 34 36 38 38 38 38 39 40 39 39 40 40 38 36 35 35 35 34 34 38 44 49 49 47 45 44 42 40 39 37 37 35 33 32 29 28 27 26 24 23 21 20 19 16 15 13 13 14 14 15 16 17 17 18 17 17 16 17 18 19 20 21 21 21 21 22 23 24
25 26 26 23 23 25 26 28 28 25 23 22 22 24 26 28 31 34 37 38 39 39 39 39 40 40 39 39 39 38 37 36 36 35 34 35 39 44 48 49 47 45 44 42 40 40 39 38 36 34 32 30 29 28 26 25 24 23 22 20 17 16 16 16 16 16 17 18 18 19 19 18 17 17 18 19 20 22 23 22 22 22 24 24 25
28 29 30 27 26 28 29 30 30 28 27 25 24 24 24 27 30 33 36 38 39 40 40 40 40 40 39 38 38 38 38 37 37 35 34 35 39 44 48 49 47 45 44 43 42 41 40 39 37 35 33 32 30 29 27 26 25 24 23 20 18 18 19 19 18 19 19 19 19 20 21 20 19 18 19 20 21 22 24 24 23 24 25 26 26
31 31 32 31 30 31 31 32 31 30 30 28 26 25 24 26 29 32 35 37 39 40 41 41 41 40 39 38 37 38 39 38 37 36 35 35 37 43 47 49 47 45 45 44 43 43 41 39 38 36 34 33 31 30 29 28 27 26 24 21 20 20 22 22 22 22 22 22 22 23 22 21 20 19 19 20 21 23 24 24 25 26 26 27 27
34 33 34 34 34 32 31 31 31 31 32 30 28 26 25 26 28 31 34 36 38 40 40 41 41 40 40 39 37 37 38 39 38 37 36 34 35 40 45 48 48 46 45 45 44 43 42 41 40 38 36 34 32 30 30 29 28 27 25 23 22 23 25 25 25 25 24 24 25 25 24 22 21 20 20 21 22 23 24 25 26 27 27 28 28
35 35 35 34 33 31 30 29 30 32 33 30 28 27 25 25 27 29 32 34 37 39 40 40 40 40 40 40 38 37 37 38 38 37 37 36 35 38 42 46 48 47 47 46 45 44 43 42 41 39 36 34 33 32 31 30 29 28 26 24 24 26 28 28 28 28 27 26 27 27 26 24 22 22 22 23 23 24 24 25 27 28 29 29 30
35 34 33 31 30 28 28 27 28 32 33 29 26 25 23 23 26 28 30 32 34 37 38 39 39 39 40 40 39 38 37 37 38 37 38 38 37 37 40 44 47 49 49 48 47 46 45 43 41 39 36 35 34 33 32 31 30 28 27 26 26 30 31 31 30 30 29 28 29 30 29 26 25 25 25 25 25 26 26 27 28 29 30 30 31
35 32 31 29 27 26 26 26 28 31 31 27 23 22 21 22 24 26 27 28 31 34 36 37 38 39 39 40 39 38 37 38 38 39 39 39 38 38 40 43 47 50 50 49 47 46 45 43 41 39 37 37 36 34 33 32 31 29 28 28 30 33 34 34 33 32 31 31 32 32 31 29 28 28 28 28 28 28 29 30 31 32 32 32 33
35 32 31 28 25 25 25 27 29 29 27 24 20 19 19 19 21 23 24 25 27 30 32 33 35 37 38 38 38 37 37 37 38 38 38 38 38 38 39 41 45 48 49 48 46 46 45 43 41 39 38 38 37 35 34 33 31 31 31 32 34 36 37 37 36 33 33 34 34 34 33 32 32 31 30 30 30 31 32 33 34 35 35 35 36
33 32 32 29 26 26 26 26 26 24 22 20 17 16 16 16 18 20 20 22 23 25 27 28 30 32 34 35 36 36 36 37 37 37 37 36 36 36 37 38 40 43 46 47 47 46 45 43 40 40 40 39 38 36 34 33 33 33 34 35 38 40 40 39 37 35 36 36 36 36 35 35 35 34 33 32 32 33 34 35 37 38 38 39 39
27 27 28 27 25 25 23 22 20 18 17 15 13 12 11 12 13 15 16 18 19 20 21 22 24 26 28 30 32 33 34 35 35 34 34 33 32 32 33 33 34 37 41 43 44 44 43 42 42 42 41 40 38 36 35 35 36 35 36 38 41 43 42 41 39 37 37 38 38 38 38 38 38 37 36 35 35 36 36 37 39 40 41 42 42
20 21 23 22 20 20 19 18 16 14 13 11 8 7 7 7 8 9 11 13 13 13 14 16 17 19 21 23 25 27 29 30 31 31 30 29 29 29 29 29 30 32 35 39 41 42 43 44 43 42 40 40 39 38 37 38 37 36 39 43 45 45 45 44 41 40 40 40 41 41 41 41 41 39 39 39 38 38 39 39 40 42 44 45 44
16 16 17 16 15 14 13 11 10 9 8 8 8 8 7 7 7 7 7 7 6 6 8 9 11 13 14 17 19 21 23 24 25 26 26 26 26 25 25 25 26 28 30 33 36 39 41 41 39 39 39 40 41 40 39 38 38 39 43 46 47 47 47 46 44 43 43 43 44 44 43 43 43 42 42 42 41 41 42 41 42 44 47 46 45
13 12 12 11 9 8 8 8 9 10 10 10 10 9 9 8 8 6 6 5 6 6 7 7 8 10 11 13 14 16 17 18 19 20 20 20 19 19 19 20 21 23 25 27 29 30 32 33 33 35 38 40 40 40 39 39 41 44 47 48 48 48 48 47 47 47 47 47 47 47 46 46 46 46 45 44 44 44 44 45 46 47 48 47 46
8 7 7 8 10 11 12 13 12 11 10 9 9 8 8 8 7 7 7 7 8 8 8 9 9 9 10 10 11 12 12 13 13 13 13 13 13 14 15 16 17 18 20 21 22 24 25 28 30 32 35 37 38 39 40 42 44 46 48 48 49 49 48 49 50 50 51 51 50 50 50 50 50 50 49 48 48 47 47 48 49 50 50 49 48
8 9 11 12 12 13 13 12 12 11 10 9 9 9 10 11 10 10 10 10 10 9 9 9 9 8 8 9 9 10 10 10 10 10 10 10 11 12 13 13 14 15 16 18 19 21 23 25 27 29 32 34 35 38 41 43 45 46 46 47 48 48 48 49 51 52 53 53 53 53 54 54 53 53 53 53 52 51 51 51 51 50 50 49 49
11 12 12 12 11 12 12 12 11 11 11 11 11 11 13 13 12 12 12 11 11 11 11 10 10 9 9 9 10 10 9 9 8 8 9 9 9 10 10 11 12 13 15 16 18 19 21 24 26 27 29 31 33 35 37 38 39 40 41 42 43 44 45 46 49 51 52 53 53 54 54 54 55 55 55 55 55 55 54 53 51 49 46 45 44
13 13 13 12 11 12 13 13 13 14 14 14 14 14 14 14 13 12 12 12 11 11 11 11 10 10 10 10 9 9 8 8 8 8 8 7 8 8 9 9 10 12 13 15 16 18 20 22 23 24 25 25 27 28 29 30 31 32 33 34 35 37 38 40 43 45 47 48 49 50 50 51 51 52 53 53 53 53 52 50 48 45 41 39 39
14 14 14 13 13 13 15 16 17 18 17 18 18 16 15 14 14 13 13 12 12 12 11 11 11 11 10 10 9 9 9 8 8 8 7 7 7 7 7 8 10 11 12 13 14 16 17 19 20 20 21 21 22 24 25 26 26 27 28 29 30 32 33 34 36 38 40 41 42 43 44 45 46 46 47 48 49 49 48 47 46 42 38 36 36
15 15 15 14 15 15 16 17 18 19 18 18 18 17 16 15 15 14 14 13 13 13 12 12 12 11 11 11 10 10 9 9 8 8 7 7 7 7 7 7 8 9 10 11 12 14 15 16 17 18 19 20 21 23 24 24 25 27 28 29 30 31 32 32 34 35 36 36 38 38 39 41 42 43 44 45 47 48 47 47 46 43 40 38 36
18 17 17 16 16 16 17 17 18 19 18 17 17 17 17 16 16 16 15 14 14 14 13 12 12 11 11 10 9 9 8 7 7 7 6 5 5 4 4 5 6 7 8 10 11 13 14 16 17 18 20 22 23 24 25 26 28 29 30 31 32 33 33 33 34 34 35 35 36 37 37 38 38 39 40 41 43 44 45 45 45 43 40 38 36
20 19 18 17 17 18 19 19 19 20 19 18 18 17 17 17 16 16 15 14 14 13 12 11 10 9 9 8 7 7 6 6 6 5 5 4 4 4 4 5 6 8 9 11 13 14 15 17 19 20 22 24 25 25 26 27 29 30 31 32 33 33 33 33 32 32 32 32 33 33 33 33 33 33 34 35 37 38 39 40 40 40 39 37 36
22 21 20 19 19 19 19 20 20 20 18 18 17 17 17 16 15 14 14 13 12 12 11 11 10 9 8 8 7 6 6 6 5 5 4 4 4 5 5 7 8 10 11 13 14 16 17 18 20 21 22 24 25 26 27 28 29 30 31 32 33 33 33 33 31 30 30 31 30 30 29 29 28 28 29 30 31 32 33 33 34 34 34 35 35
22 22 22 21 21 20 19 19 20 19 18 17 17 16 16 16 14 13 12 11 11 11 10 10 9 8 8 7 6 5 5 4 4 4 4 5 5 6 7 8 10 12 13 15 16 17 18 19 21 21 23 24 26 27 28 29 29 30 31 31 31 30 29 29 27 26 27 29 30 29 29 28 26 26 26 26 26 26 26 27 28 28 29 30 30
Wind_Direction
258 257 256 255 253 251 249 249 249 246 242 238 239 239 238 237 237 235 230 227 223 221 218 216 218 212 204 213 226 227 220 220 225 227 228 232 242 237 223 222 223 216 210 202 198 201 206 211 208 207 216 216 206 201 202 205 209 210 201 191 193 185 170 174 179 180 190 187 182 190 197 203 225 242 265 296 316 330 336 340 343 346 348 350 355
258 257 256 255 254 252 249 248 247 246 243 239 239 238 237 235 234 234 231 227 222 221 218 213 217 218 210 215 225 220 213 214 214 217 225 234 248 248 226 218 217 208 206 206 206 209 211 211 210 210 209 198 192 197 200 199 195 190 184 173 174 181 176 176 178 179 194 202 193 194 198 203 225 243 260 283 305 322 327 333 340 344 348 351 356
259 257 256 255 256 254 251 249 247 246 243 240 239 238 237 233 233 232 229 227 221 218 217 211 217 223 216 216 223 216 211 212 216 229 238 240 247 244 223 217 209 202 207 209 206 205 204 203 200 197 193 186 187 190 186 184 176 168 170 172 170 174 179 179 178 181 193 200 195 201 205 206 224 241 255 273 294 309 317 328 338 342 346 350 354
262 260 258 256 254 253 252 251 249 246 243 240 237 236 236 232 231 229 225 225 219 216 216 212 217 221 213 216 222 216 214 220 228 233 229 231 243 240 224 218 206 201 206 202 195 191 193 196 190 184 182 180 182 182 177 172 168 164 165 167 164 167 174 175 179 186 198 202 197 198 207 215 226 239 249 266 281 291 308 325 335 339 342 345 348
264 263 262 258 256 254 253 253 250 247 245 242 238 236 235 232 230 227 222 221 220 219 214 211 217 219 214 217 219 215 218 228 230 225 223 236 244 233 220 212 202 203 201 192 188 185 189 194 189 186 181 174 174 175 173 168 167 166 159 154 151 154 167 174 179 188 199 207 212 210 213 228 240 243 243 256 269 276 300 320 329 332 335 338 341
264 265 264 262 260 256 252 250 249 249 249 245 240 236 235 232 229 226 223 220 219 221 216 214 219 222 219 217 214 214 221 230 230 226 232 245 240 222 216 207 200 203 195 185 185 186 191 193 191 188 177 169 169 172 173 169 166 159 150 151 152 149 161 174 177 188 202 208 223 239 244 254 256 242 233 234 249 264 282 301 314 318 323 331 339
266 266 265 264 262 257 252 250 249 249 249 245 239 235 233 232 229 226 225 224 221 221 219 218 220 222 219 217 218 224 229 231 227 227 237 245 234 218 213 205 197 194 188 182 183 188 193 193 188 181 172 168 170 174 173 167 160 154 150 153 156 154 156 168 176 186 202 210 225 244 253 262 265 249 240 231 230 247 260 271 290 298 311 331 343
271 269 267 266 264 260 257 253 249 247 245 243 239 234 232 230 228 225 224 226 225 221 219 220 223 221 217 219 230 234 231 228 229 236 244 239 226 214 208 201 191 185 185 182 183 191 195 191 182 175 171 171 171 172 169 162 158 156 154 154 157 155 149 158 170 171 191 214 226 241 248 253 256 249 245 238 230 228 228 238 264 285 315 338 347
273 271 271 270 268 264 260 255 249 245 243 244 241 236 232 229 226 223 223 226 226 221 216 217 221 220 219 224 229 227 225 230 239 246 244 228 216 210 203 196 187 183 185 186 188 192 191 184 178 175 175 173 169 169 166 160 159 159 155 152 154 150 142 147 154 157 180 213 224 237 242 242 242 238 234 233 230 217 208 216 246 288 322 334 343
273 273 274 273 270 266 259 254 248 244 243 244 242 236 231 228 226 224 224 224 225 223 218 216 218 220 222 223 223 224 230 236 234 237 237 221 212 207 199 193 188 185 187 190 191 188 184 180 179 178 177 173 168 169 167 163 161 159 153 149 147 142 135 136 137 146 197 242 246 249 251 249 249 249 251 256 257 238 206 203 218 265 307 322 332
286 285 281 276 271 262 254 250 247 244 242 242 241 235 230 229 228 227 226 224 222 223 221 218 219 221 222 221 224 230 233 229 224 231 234 219 209 204 197 193 191 189 190 191 187 182 181 181 180 180 178 173 170 170 169 166 162 157 152 146 142 137 127 116 97 45 322 290 272 267 268 273 279 281 286 293 293 286 269 246 240 253 291 311 316
299 300 291 283 275 266 255 248 244 241 240 240 239 235 229 228 229 228 228 226 224 223 221 217 217 220 221 222 228 229 227 225 227 238 236 219 209 203 197 195 194 192 191 187 182 180 181 182 182 180 177 174 172 172 171 169 164 159 154 145 138 133 112 76 45 8 333 304 284 277 277 280 285 286 288 290 287 282 277 270 264 264 280 297 301
288 292 291 288 283 276 263 252 245 241 240 239 238 234 229 227 227 228 228 227 225 223 221 218 215 218 220 223 226 222 219 227 236 243 236 220 211 206 201 199 197 193 188 184 182 182 183 184 182 180 179 177 175 176 175 171 167 162 155 148 141 127 93 57 28 3 336 307 285 276 273 273 275 275 275 274 271 268 264 259 261 267 274 281 285
280 286 290 289 285 278 267 257 249 244 241 239 237 234 230 227 227 227 228 226 224 222 221 219 216 217 219 221 221 218 223 234 240 238 230 221 215 211 208 206 201 194 187 184 184 184 184 184 183 181 181 180 178 179 177 173 169 164 160 158 148 125 85 46 16 357 335 306 281 268 265 262 262 262 261 260 257 256 254 253 255 262 271 276 276
277 282 287 288 283 275 265 258 251 247 243 239 237 234 231 230 229 228 227 225 223 222 220 217 218 219 219 217 217 221 232 238 234 227 223 222 219 215 213 210 203 195 188 186 186 186 185 185 184 183 183 182 181 181 180 176 172 169 169 166 154 135 85 26 360 344 326 298 274 261 256 254 254 252 251 250 249 249 250 252 256 259 268 275 278
278 282 287 287 282 274 265 258 252 246 243 240 237 235 233 232 231 230 229 228 226 223 219 216 218 220 218 215 219 226 231 228 224 220 218 221 224 220 216 212 203 196 192 190 189 189 188 186 185 185 185 184 184 182 181 179 176 176 175 171 163 154 92 356 331 318 304 282 264 254 250 248 247 246 245 245 245 245 246 250 255 259 265 273 280
280 282 286 285 281 277 269 260 254 249 245 243 240 237 236 234 233 231 229 229 227 223 220 217 217 218 216 219 228 230 225 222 219 217 217 221 226 222 217 211 203 198 195 193 192 191 190 189 188 187 187 186 186 184 182 181 181 181 180 176 173 175 231 299 284 281 274 263 255 249 248 246 243 242 242 243 243 245 247 249 253 258 264 270 277
280 279 279 280 281 280 274 265 257 253 249 247 243 240 238 235 234 233 231 230 227 223 221 219 218 218 220 227 232 227 222 219 214 215 222 227 226 221 215 210 204 200 198 196 195 194 192 191 190 189 189 188 188 187 185 185 187 187 185 183 185 196 241 263 261 258 253 250 249 248 247 245 243 243 242 244 245 245 248 250 254 259 264 270 274
282 282 278 278 282 281 277 271 261 254 249 246 243 240 238 236 234 232 233 232 228 224 222 221 220 220 223 228 230 227 223 217 212 219 228 229 227 222 216 210 205 202 201 198 197 197 195 194 192 192 192 191 191 190 189 190 192 193 192 191 196 209 239 254 254 251 245 242 245 248 248 245 245 246 244 245 247 250 252 254 256 260 264 270 275
287 288 285 285 287 283 278 273 266 257 251 245 241 239 238 237 234 231 231 230 227 224 222 221 220 219 222 226 227 227 222 216 217 226 231 230 228 223 217 212 207 204 202 201 200 200 199 196 194 195 195 195 194 194 194 195 196 197 196 199 208 220 239 252 255 252 246 241 243 246 249 249 248 249 249 250 251 253 256 257 260 263 266 271 275
279 284 296 301 296 288 278 271 265 256 249 244 240 240 239 238 235 232 230 228 226 224 222 221 220 218 222 226 225 223 221 220 226 231 233 233 228 222 218 213 208 206 205 204 203 203 202 199 198 198 198 199 199 198 199 200 201 202 201 205 216 228 244 256 257 254 249 245 245 246 249 251 251 251 253 256 257 257 259 261 263 266 269 273 275
259 264 292 306 305 297 285 271 262 254 249 245 241 239 238 237 236 233 231 230 228 225 223 221 219 219 224 226 223 223 225 227 230 231 232 233 227 221 218 212 209 208 207 206 206 205 204 202 202 201 201 201 202 203 204 205 206 207 209 213 222 234 249 256 257 255 251 249 248 248 250 252 254 258 259 259 260 260 262 265 268 271 273 274 276
251 248 265 294 305 301 291 278 267 257 251 247 242 240 238 237 237 235 233 232 230 227 225 222 221 223 226 227 224 224 227 229 230 231 233 233 227 220 216 212 210 209 209 208 208 207 206 205 204 205 204 204 205 206 208 210 211 212 215 220 228 239 250 255 255 255 252 251 251 250 252 255 258 261 262 262 263 264 267 270 272 274 275 275 277
265 256 252 276 293 295 293 285 274 263 255 248 243 241 239 237 237 237 236 235 232 229 226 224 224 227 228 228 227 225 226 229 230 230 233 233 226 219 215 212 210 210 210 209 209 209 208 208 207 207 207 207 208 210 212 214 215 216 219 226 233 242 250 253 254 256 256 254 252 252 255 258 260 261 263 264 266 268 271 272 274 275 276 277 278
272 266 260 275 290 294 293 288 278 268 260 251 245 242 240 238 238 238 238 237 234 231 227 225 227 229 229 228 229 228 227 228 230 230 233 233 225 217 214 212 211 211 212 211 210 210 210 210 211 211 211 211 212 215 217 218 219 220 222 228 237 245 250 253 256 260 260 257 254 254 256 258 260 262 264 267 268 270 272 272 275 277 278 279 279
270 269 268 277 287 291 293 290 282 272 263 254 248 243 241 240 239 239 239 238 237 232 228 227 229 230 229 227 229 231 230 229 230 231 233 232 224 217 215 213 212 213 213 212 212 212 212 213 214 215 215 215 216 218 221 222 223 225 227 232 240 247 251 254 260 264 263 261 259 257 257 259 261 263 265 267 268 270 272 274 277 279 279 280 280
267 267 271 278 284 290 293 291 284 275 266 258 252 246 243 242 240 239 238 238 238 235 230 230 231 230 229 228 229 232 232 230 231 233 235 232 223 218 216 214 214 214 214 214 215 215 215 216 217 217 217 217 219 221 224 225 226 229 233 238 243 248 253 260 265 266 264 262 262 261 261 261 262 263 264 266 269 271 273 275 277 279 280 281 282
266 265 268 275 281 286 290 289 283 277 270 263 257 251 246 244 242 241 239 238 238 237 233 231 231 230 229 229 230 232 232 231 233 235 235 231 224 219 217 216 216 216 217 217 217 218 219 219 219 219 219 219 221 224 227 228 230 232 236 240 245 249 258 266 267 266 264 264 265 265 264 263 262 263 265 267 270 272 274 276 278 280 280 281 283
268 268 266 270 277 282 287 288 283 278 274 268 259 254 250 246 244 241 239 238 238 237 235 233 232 231 231 229 229 231 231 231 233 235 235 231 225 220 218 218 218 219 219 219 219 221 222 222 221 221 221 222 224 227 230 232 235 237 239 242 245 252 264 270 267 264 265 266 267 268 266 263 261 263 266 269 272 274 275 277 279 280 280 281 283
268 270 268 269 274 280 285 285 282 281 279 274 264 256 253 251 248 242 239 237 237 237 237 235 233 233 233 231 230 231 231 230 232 235 235 232 226 222 220 220 220 221 221 221 221 223 224 224 225 224 224 225 227 229 233 235 237 238 240 243 246 255 267 272 268 266 266 268 270 270 266 262 261 264 267 271 274 276 277 279 280 280 281 282 283
265 268 269 270 273 277 281 283 286 286 282 278 270 260 254 254 252 248 243 238 237 237 237 237 236 234 233 233 231 232 232 232 233 235 236 233 229 225 223 223 223 223 223 223 224 225 226 226 227 228 228 229 231 233 236 237 237 238 239 241 248 259 270 274 273 269 268 270 271 268 265 263 263 267 270 273 275 276 278 281 282 282 281 282 283
264 266 269 272 272 275 279 282 287 288 284 281 274 263 256 256 255 253 248 241 237 237 236 236 236 234 234 234 233 234 235 235 235 236 237 235 232 229 227 226 226 226 226 227 227 228 228 229 229 230 231 232 235 237 239 239 237 238 239 242 250 263 272 278 277 272 271 273 270 266 264 264 266 269 272 273 274 276 279 282 283 283 282 282 283
266 268 270 273 273 273 276 279 283 284 285 283 275 266 262 261 259 257 252 245 240 238 237 236 236 235 235 235 235 235 236 236 237 238 239 237 234 231 230 229 228 229 230 230 230 230 231 231 231 232 233 235 238 240 240 240 239 240 242 244 253 267 275 280 280 276 275 275 270 264 263 265 268 271 273 274 275 277 279 282 282 283 283 284 285
269 270 272 272 272 271 271 273 276 278 282 281 273 266 263 260 258 257 254 248 243 239 237 237 236 236 235 234 235 236 237 237 238 239 239 238 235 233 232 231 230 230 231 232 232 233 233 233 233 234 236 239 242 241 241 241 241 243 244 247 259 272 277 281 284 281 278 275 268 263 264 267 270 272 273 274 276 278 279 280 280 281 283 285 286
272 274 275 274 272 271 270 270 272 276 279 280 275 268 263 257 256 255 252 249 245 240 239 238 237 236 236 235 235 237 238 239 239 239 239 239 238 236 235 233 232 231 231 232 233 235 236 237 237 238 241 244 244 242 242 242 244 246 246 251 266 275 277 282 285 283 278 273 265 261 264 269 271 273 274 274 276 278 279 279 279 280 282 283 284
279 279 278 277 273 269 267 267 269 273 276 277 274 267 259 253 251 251 250 248 244 240 239 238 238 237 237 237 236 237 238 240 239 239 240 240 240 239 238 237 235 233 233 233 235 237 239 239 240 242 246 248 246 244 244 244 246 247 247 255 270 277 277 281 286 283 277 270 264 262 266 270 272 274 275 274 275 277 278 279 280 280 281 282 283
278 277 275 274 270 266 264 265 268 271 272 271 265 257 250 245 245 246 245 244 242 240 238 238 239 240 239 239 237 237 239 240 240 240 241 242 243 243 242 241 239 237 236 235 236 238 239 240 243 247 250 251 249 247 247 248 249 249 249 259 273 278 278 281 283 282 276 268 263 264 267 270 272 274 275 275 274 274 276 279 280 281 282 282 282
272 272 272 271 269 266 265 267 268 268 264 256 249 243 238 237 239 240 240 240 238 237 237 237 239 240 240 240 239 239 241 243 244 244 245 246 247 247 247 246 244 243 240 239 239 240 240 242 247 251 252 252 252 251 251 251 252 250 250 262 274 278 278 278 279 278 274 268 265 267 268 270 272 274 276 275 273 273 275 278 281 282 282 282 283
266 268 271 271 271 267 265 265 262 255 245 234 222 213 207 209 219 225 230 234 235 236 237 238 239 239 240 242 242 243 245 246 248 249 249 250 250 250 250 249 248 247 245 243 243 243 244 248 251 253 253 253 253 253 253 254 254 251 254 265 274 276 275 275 275 275 273 268 266 268 269 271 274 275 275 275 274 274 275 277 280 281 280 282 285
261 265 267 268 268 265 259 250 235 214 194 179 166 159 159 164 177 194 207 213 217 227 232 232 234 236 237 240 241 243 245 247 249 250 250 251 251 252 254 255 255 255 254 253 252 252 252 254 254 254 253 252 253 255 255 256 255 254 258 266 271 272 272 273 272 273 272 270 269 270 271 273 274 275 275 275 276 276 275 277 278 278 279 283 287
257 258 258 252 240 219 193 173 162 154 149 148 146 146 150 154 159 160 157 156 164 180 192 197 205 214 222 227 232 238 242 244 246 247 249 251 253 256 259 260 261 261 261 261 261 260 260 259 256 254 253 252 254 257 258 257 257 259 263 266 268 269 270 270 270 270 272 272 272 273 275 275 275 276 276 276 276 277 277 277 277 277 280 282 283
233 218 203 191 176 160 149 145 141 138 138 139 138 140 140 136 133 131 135 145 154 161 171 179 186 194 202 210 217 224 228 230 232 236 238 242 246 248 251 253 255 257 258 260 262 261 261 259 257 255 253 254 255 257 258 260 261 263 265 265 265 266 267 267 267 269 272 273 275 276 277 278 278 278 278 277 277 277 276 276 277 278 280 281 281
170 157 152 150 150 147 143 144 142 139 137 132 128 128 125 124 128 132 137 142 144 146 154 159 162 167 173 181 190 195 200 205 209 215 221 227 232 237 243 247 251 256 259 261 262 262 261 260 258 256 256 257 259 261 263 265 266 267 267 266 266 267 267 266 267 270 272 274 276 277 278 280 280 281 281 281 280 279 278 276 277 278 278 279 281
155 152 148 145 151 154 149 147 145 139 134 127 123 126 129 130 134 137 138 140 140 143 146 145 148 155 160 167 173 177 183 191 196 204 214 221 228 236 243 248 252 256 260 262 263 264 264 264 264 264 264 265 267 268 269 270 271 271 271 270 270 270 270 269 269 272 274 275 277 278 280 281 282 282 283 283 283 282 282 281 281 280 279 278 276
159 155 149 148 156 158 154 150 142 134 131 127 125 129 134 134 135 137 139 141 142 143 143 144 148 154 157 162 167 170 177 184 191 202 213 219 228 236 242 249 253 256 259 262 264 265 266 267 268 269 269 271 272 272 272 273 274 274 274 275 275 274 273 272 271 272 274 276 277 279 280 281 282 282 283 283 283 283 284 285 285 284 281 278 273
154 147 144 146 151 151 150 146 137 132 133 133 133 136 138 139 141 142 142 142 142 143 144 145 148 151 154 159 164 167 174 181 185 194 201 206 216 225 234 243 249 253 259 263 265 267 268 269 270 272 274 276 275 274 274 275 276 276 276 275 275 274 273 272 272 272 273 274 276 277 279 280 281 282 283 284 284 285 285 286 286 285 282 278 275
145 140 138 142 147 146 145 145 141 138 140 141 141 143 143 143 144 143 141 142 141 141 143 144 146 149 152 155 158 161 167 172 175 182 190 197 206 215 226 238 247 254 262 267 269 271 273 274 275 277 278 278 277 277 278 279 279 279 278 278 278 278 278 277 277 277 277 276 276 276 276 276 277 277 279 281 283 285 286 287 288 288 286 284 281
144 142 143 147 150 149 147 148 145 142 142 143 143 143 142 140 139 137 136 137 137 137 139 140 140 142 144 146 149 152 155 158 163 169 177 187 198 211 229 245 255 261 266 270 271 273 276 278 279 280 281 280 281 282 284 284 284 284 285 285 286 286 285 285 284 284 283 282 281 280 279 278 278 277 278 278 279 281 283 285 287 288 289 289 288
148 147 148 151 151 148 147 146 141 139 139 140 139 138 137 135 135 135 136 138 138 138 138 138 140 141 144 146 149 152 154 158 163 167 172 185 201 218 237 253 263 267 271 274 276 278 280 282 283 284 286 287 287 288 289 289 289 289 289 290 290 289 289 289 288 288 288 287 286 285 285 284 282 281 280 279 279 279 281 283 285 287 289 290 291
149 146 146 146 146 144 144 142 137 135 137 138 138 139 138 138 140 140 140 142 143 142 142 145 146 149 153 156 159 163 168 173 180 189 200 216 233 246 258 268 276 282 285 285 286 288 289 289 290 291 292 293 294 294 293 293 293 293 293 293 293 293 294 294 295 297 296 294 292 290 289 287 286 284 284 284 284 285 286 287 288 290 291 291 291
148 146 146 145 143 143 144 140 137 137 140 142 142 142 141 141 142 139 138 141 142 140 143 147 148 151 156 161 166 173 182 192 207 223 238 252 263 270 277 284 288 291 292 293 294 295 295 295 296 296 295 294 294 293 293 293 293 293 293 293 294 295 296 297 299 300 299 297 297 297 296 296 295 293 292 293 294 295 295 296 297 298 297 296 296